Forside
METAR-TAF:

METAR-TAF

Lufthavne :

Price County Airport

Phillips, Wisconsin, USA

Breddekreds: 45-42N, længdekreds: 090-24W, højde: 449 m

Aktuelle vejr

Denne rapport blev lavet for 23 minutter siden, kl. 14:35 UTC
Vind 5 kt fra vest
Temperatur 9°C
Fugtighed 61%
Tryk 1007 hPa
Sigt: 16.1 km
skyfri

METAR: KPBH 081435Z AUTO 26005KT 10SM CLR 09/02 A2973 RMK AO2 T00930015

Tid: 09:58 (14:58 UTC)


TAF: fraværende

Vejrobservationer og prognoser fra mere end 4000 lufthavne (METAR og TAF).

De gule og røde prikker repræsenterer de meteorologiske stationer.

Flyt musen over at se navnet på stationen.

Så klik over at se vejr observationer og prognoser.

At skifte det kort: Klik på de grønne knapper med et sort kors for at zoome ind; på den grønne knap med en bindestreg for at zoome ud; eller på de grønne pile for tilstødende kort.


METAR-TAF: